Location: La Brionne
(46.1728°N, 1.7849°E)
Time: 08:12:15
(UTC+00:00)

Cosmos 1980 Rocket - Pass Details

Date: 16 June 2021
Orbit: 830 x 849 km, 71.0° (Epoch: 03 August)

Event Time Altitude Azimuth Distance (km) Brightness Sun altitude
Rises 20:16:39 0° 221° (SW) 3,381 5.3 -4.9°
Reaches altitude 10° 20:19:09 10° 226° (SW) 2,447 4.7 -5.2°
Maximum altitude 20:24:37 51° 302° (WNW) 1,043 3.3 -5.9°
Drops below altitude 10° 20:30:05 10° 18° (NNE) 2,451 5.0 -6.6°
Sets 20:32:36 0° 24° (NNE) 3,387 5.6 -6.9°
